Terminal Aerodrome Forecast
Issued by NWS Quad Cities IA IL

Home | Current Version | Previous Version | Text Only | Print | Product List | Glossary On
Versions: 1 2 3 4 5 6 7 8 9 10 11 12
000
FTUS43 KDVN 151700
TAFMLI
TAF
KMLI 151720Z 1518/1618 12015G20KT P6SM BKN250
     FM160000 09010KT P6SM BKN250
     FM160900 06005KT P6SM SCT120 BKN250=

USA.gov is the U.S. government's official web portal to all federal, state and local government web resources and services.